User: anonymous   Login
Location: Caltech
(34.1382°N, 118.1253°W)
Time: 12:03:46
(UTC-07:00)
Language:

Cosmos 2322 - Orbit

View from above orbital plane
View from above orbital plane
View from above satellite
View from above satellite

Ground track
Ground track

The orbit data is extracted from the following two-line orbital elements,

1 23704U 95058A   17173.76636796 -.00000049 +00000-0 -10082-5 0  9993
2 23704 070.9876 032.1018 0007331 079.8660 280.3288 14.13384756116427
Epoch (UTC): 22 June 2017 18:23:34
Eccentricity: 0.0007331
inclination: 70.9876°
perigee height: 842 km
apogee height: 853 km
right ascension of ascending node: 32.1018°
argument of perigee: 79.8660°
revolutions per day: 14.13384756
mean anomaly at epoch: 280.3288°
orbit number at epoch: 11642

The dashed part of the orbit path shows where the satellite is in the earth's shadow,  

DLR